Weather History for Olive Branch, MS

Change the Weather History Date:

Tuesday, May 21, 2013

  Actual Average (KMEM) Record (KMEM)
Temperature  
Mean Temperature 70 °F 73 °F  
Max Temperature 75 °F 83 °F 94 °F (1941)
Min Temperature 62 °F 64 °F 46 °F (1954)
Degree Days  
Heating Degree Days 0 0  
Month to date heating degree days 17  
Since 1 July heating degree days 2962  
Cooling Degree Days 4 8  
Month to date cooling degree days 128  
Year to date cooling degree days 223  
Growing Degree Days 20 (Base 50)    
Moisture  
Dew Point 70 °F    
Average Humidity 99    
Maximum Humidity 100    
Minimum Humidity 88    
Precipitation  
Precipitation 0.90 in 0.15 in 4.18 in (2013)
Month to date precipitation 3.70  
Year to date precipitation 22.73  
Snow  
Snow 0.00 in 0.00 in - ()
Month to date snowfall 0.0  
Since 1 July snowfall 3.8  
Snow Depth -    
Sea Level Pressure  
Sea Level Pressure 29.91 in    
Wind  
Wind Speed 7 mph (SE)    
Max Wind Speed 26 mph    
Max Gust Speed 32 mph    
Visibility 7 miles    
Events Rain , Thunderstorm    
T = Trace of Precipitation, MM = Missing Value Source: NWS Daily Summary

Daily Weather History Graph

Daily Weather History Graph

Search for Another Location

Airport:

Trip Planner

Search our weather history database for the weather conditions in past years. The results will help you decide how hot, cold, wet, or windy it might be!

Date:

Astronomy

May. 21, 2013 Rise Set
Actual Time 5:51 AM CDT 8:00 PM CDT
Civil Twilight 5:22 AM CDT 8:29 PM CDT
Nautical Twilight 4:48 AM CDT 9:04 PM CDT
Astronomical Twilight 4:10 AM CDT 9:41 PM CDT
Moon 4:21 PM CDT (5/21) 3:10 AM CDT (5/21)
Length of Visible Light 15h 06m
Length of Day
14h 09m
Waxing Gibbous, 84% of the Moon is Illuminated
May 21
Waxing Gibbous
May 24
Full
May 31
Last Quarter
Jun 8
New
Jun 16
First Quarter

Hourly Weather History & Observations

Time (CDT) Temp. Dew Point Humidity Pressure Visibility Wind Dir Wind Speed Gust Speed Precip Events Conditions
12:15 AM 73.4 °F 73.4 °F 100% 29.92 in 10.0 mi South 6.9 mph - 0.00 in   Partly Cloudy
12:35 AM 75.2 °F 73.4 °F 94% 29.91 in 9.0 mi South 6.9 mph - 0.00 in   Mostly Cloudy
12:55 AM 75.2 °F 73.4 °F 94% 29.91 in 7.0 mi South 8.1 mph - 0.00 in   Mostly Cloudy
1:15 AM 73.4 °F 73.4 °F 100% 29.91 in 10.0 mi South 8.1 mph - 0.00 in   Partly Cloudy
1:35 AM 73.4 °F 73.4 °F 100% 29.91 in 10.0 mi South 8.1 mph - 0.00 in   Clear
1:55 AM 73.4 °F 73.4 °F 100% 29.91 in 10.0 mi South 10.4 mph - N/A   Partly Cloudy
2:15 AM 73.4 °F 73.4 °F 100% 29.92 in 10.0 mi South 10.4 mph 16.1 mph 0.00 in   Partly Cloudy
2:35 AM 73.4 °F 73.4 °F 100% 29.91 in 8.0 mi SSW 9.2 mph - 0.00 in   Mostly Cloudy
2:55 AM 73.4 °F 73.4 °F 100% 29.91 in 10.0 mi South 9.2 mph - 0.00 in   Mostly Cloudy
3:15 AM 73.4 °F 73.4 °F 100% 29.89 in 7.0 mi South 9.2 mph - 0.00 in   Mostly Cloudy
3:35 AM 69.8 °F 66.2 °F 88% 29.94 in 10.0 mi WNW 15.0 mph 24.2 mph 0.00 in   Mostly Cloudy
3:55 AM 66.2 °F 66.2 °F 100% 29.95 in 5.0 mi NW 8.1 mph - 0.06 in   Mostly Cloudy
4:15 AM 64.4 °F 64.4 °F 100% 29.93 in 5.0 mi Calm Calm - 0.01 in   Mostly Cloudy
4:35 AM 64.4 °F 64.4 °F 100% 29.92 in 10.0 mi Calm Calm - 0.01 in   Partly Cloudy
4:55 AM 64.4 °F 64.4 °F 100% 29.92 in 10.0 mi ESE 8.1 mph - 0.01 in   Clear
5:15 AM 64.4 °F 64.4 °F 100% 29.93 in 9.0 mi ESE 3.5 mph - 0.00 in   Clear
5:35 AM 64.4 °F 64.4 °F 100% 29.94 in 10.0 mi Calm Calm - 0.00 in   Clear
5:55 AM 64.4 °F - N/A% 29.94 in 8.0 mi Calm Calm - 0.00 in   Mostly Cloudy
6:15 AM 64.4 °F - N/A% 29.95 in 9.0 mi Calm Calm - 0.00 in   Overcast
6:35 AM 64.4 °F - N/A% 29.96 in 10.0 mi Calm Calm - 0.00 in   Mostly Cloudy
6:50 AM 64.4 °F - N/A% 29.95 in 8.0 mi ESE 5.8 mph - N/A   Mostly Cloudy
6:55 AM 64.4 °F - N/A% 29.96 in 10.0 mi Calm Calm - 0.00 in   Mostly Cloudy
7:50 AM 68.0 °F 68.0 °F 100% 29.96 in 10.0 mi ESE 4.6 mph - N/A   Mostly Cloudy
8:50 AM 69.8 °F 69.8 °F 100% 29.97 in 10.0 mi SE 4.6 mph - N/A   Overcast
10:50 AM 66.2 °F 66.2 °F 100% 29.97 in 10.0 mi NE 4.6 mph - N/A   Overcast
10:55 AM 69.8 °F 69.8 °F 100% 30.01 in 5.0 mi NW 13.8 mph - N/A Rain Rain
11:50 AM 71.6 °F 71.6 °F 100% 29.94 in 9.0 mi NE 5.8 mph - N/A   Overcast
12:55 PM 73.4 °F 73.4 °F 100% 29.92 in 10.0 mi ESE 6.9 mph - N/A   Overcast
2:50 PM 71.6 °F 71.6 °F 100% 29.87 in 7.0 mi East 5.8 mph - N/A   Scattered Clouds
3:24 PM 71.6 °F 71.6 °F 100% 29.84 in 5.0 mi East 5.8 mph - N/A Rain , Thunderstorm Light Thunderstorms and Rain
3:50 PM 71.6 °F 71.6 °F 100% 29.81 in 3.0 mi East 10.4 mph - N/A Rain , Thunderstorm Light Thunderstorms and Rain
4:28 PM 71.6 °F 71.6 °F 100% 29.79 in 1.0 mi SE 10.4 mph 16.1 mph N/A Rain , Thunderstorm Thunderstorms and Rain
4:50 PM 69.8 °F 69.8 °F 100% 29.81 in 4.0 mi East 6.9 mph - N/A Rain , Thunderstorm Light Thunderstorms and Rain
5:50 PM 66.2 °F 66.2 °F 100% 29.80 in 0.5 mi NW 26.5 mph 32.2 mph N/A Rain , Thunderstorm Heavy Thunderstorms and Rain
6:50 PM 66.2 °F 66.2 °F 100% 29.85 in 4.0 mi SSE 6.9 mph - N/A Rain Light Rain
9:15 PM 66.2 °F - N/A% 29.82 in 10.0 mi East 8.1 mph - 0.00 in   Mostly Cloudy
9:35 PM 66.2 °F - N/A% 29.83 in 5.0 mi East 6.9 mph - 0.02 in   Overcast
9:55 PM 66.2 °F - N/A% 29.83 in 8.0 mi ENE 3.5 mph - 0.05 in   Overcast
10:15 PM 66.2 °F - N/A% 29.89 in 2.0 mi WSW 9.2 mph - 0.15 in   Overcast
10:35 PM 66.2 °F - N/A% 29.90 in 5.0 mi WNW 15.0 mph 21.9 mph 0.21 in   Overcast
10:55 PM 64.4 °F - N/A% 29.91 in 1.8 mi WNW 12.7 mph - 0.42 in   Overcast
11:15 PM 64.4 °F - N/A% 29.93 in 1.8 mi WNW 5.8 mph - 0.13 in   Overcast
11:35 PM 64.4 °F - N/A% 29.95 in 2.0 mi NW 4.6 mph - 0.29 in   Overcast
11:55 PM 62.6 °F - N/A% 29.95 in 3.0 mi West 6.9 mph - 0.36 in   Overcast